• In Portugal
  • List of Countries
  • For 7 days
  • Water Temperature
  • Satellite Maps
  • Weather Map
  • Weather Widgets
  • user-avatar
    Login

    Hourly Weather Grzedy

    Today, 16 November, Friday

    Time Temperature Precipitation Wind Pressure Humidity
    00:00 +1°C° 0 mm 2 mps 727 mmHg 88%
    01:00 +1°C° 0 mm 2 mps 728 mmHg 88%
    02:00 +1°C° 0 mm 2 mps 728 mmHg 88%
    03:00 -1°C° 0 mm 2 mps 728 mmHg 89%
    04:00 -1°C° 0 mm 2 mps 728 mmHg 89%
    05:00 -1°C° 0 mm 2 mps 728 mmHg 90%
    06:00 -1°C° 0 mm 2 mps 728 mmHg 91%
    07:00 -1°C° 0 mm 2 mps 728 mmHg 92%
    08:00 +1°C° 0 mm 2 mps 728 mmHg 87%
    09:00 +1°C° 0 mm 3 mps 729 mmHg 82%
    10:00 +2°C° 0 mm 3 mps 729 mmHg 77%
    11:00 +3°C° 0 mm 3 mps 729 mmHg 74%
    12:00 +3°C° 0 mm 3 mps 729 mmHg 71%
    13:00 +4°C° 0 mm 4 mps 729 mmHg 67%
    14:00 +3°C° 0 mm 4 mps 729 mmHg 70%
    15:00 +2°C° 0 mm 3 mps 729 mmHg 73%
    16:00 +1°C° 0 mm 3 mps 729 mmHg 76%
    17:00 +1°C° 0 mm 3 mps 729 mmHg 78%
    18:00 0°C° 0 mm 3 mps 729 mmHg 81%
    19:00 0°C° 0 mm 3 mps 729 mmHg 83%
    20:00 -1°C° 0 mm 3 mps 729 mmHg 85%
    21:00 -1°C° 0 mm 3 mps 729 mmHg 86%
    22:00 -1°C° 0 mm 3 mps 729 mmHg 88%
    23:00 -2°C° 0 mm 3 mps 729 mmHg 87%

    Tomorrow, 17 November, Saturday

    Time Temperature Precipitation Wind Pressure Humidity
    00:00 -2°C° 0 mm 2 mps 729 mmHg 87%
    01:00 -2°C° 0 mm 2 mps 729 mmHg 87%
    02:00 -2°C° 0 mm 2 mps 729 mmHg 85%
    03:00 -2°C° 0 mm 2 mps 729 mmHg 83%
    04:00 -2°C° 0 mm 3 mps 729 mmHg 81%
    05:00 -2°C° 0 mm 3 mps 729 mmHg 79%
    06:00 -4°C° 0 mm 3 mps 729 mmHg 77%
    07:00 -4°C° 0 mm 3 mps 729 mmHg 75%
    08:00 -2°C° 0 mm 3 mps 729 mmHg 67%
    09:00 0°C° 0 mm 3 mps 730 mmHg 59%
    10:00 0°C° 0 mm 4 mps 730 mmHg 51%
    11:00 0°C° 0 mm 4 mps 730 mmHg 48%
    12:00 +1°C° 0 mm 4 mps 730 mmHg 44%
    13:00 +3°C° 0 mm 4 mps 729 mmHg 40%
    14:00 0°C° 0 mm 4 mps 729 mmHg 44%
    15:00 -1°C° 0 mm 4 mps 729 mmHg 48%
    16:00 -1°C° 0 mm 3 mps 729 mmHg 53%
    17:00 -1°C° 0 mm 3 mps 728 mmHg 54%
    18:00 -2°C° 0 mm 3 mps 728 mmHg 55%
    19:00 -2°C° 0 mm 3 mps 728 mmHg 56%
    20:00 -2°C° 0 mm 3 mps 728 mmHg 57%
    21:00 -3°C° 0 mm 2 mps 728 mmHg 57%
    22:00 -3°C° 0 mm 2 mps 728 mmHg 58%
    23:00 -3°C° 0 mm 2 mps 728 mmHg 59%

    Day after tomorrow, 18 November, Sunday

    Time Temperature Precipitation Wind Pressure Humidity
    00:00 -3°C° 0 mm 2 mps 728 mmHg 60%
    01:00 -3°C° 0 mm 2 mps 728 mmHg 61%
    02:00 -3°C° 0 mm 2 mps 728 mmHg 62%
    03:00 -2°C° 0 mm 1 mps 727 mmHg 63%
    04:00 -2°C° 0 mm 1 mps 727 mmHg 65%
    05:00 -2°C° 0 mm 1 mps 727 mmHg 66%
    06:00 -2°C° 0 mm 1 mps 726 mmHg 67%
    07:00 -2°C° 0 mm 1 mps 726 mmHg 68%
    08:00 0°C° 0 mm 1 mps 726 mmHg 65%
    09:00 +1°C° 0 mm 1 mps 726 mmHg 61%
    10:00 +2°C° 0 mm 1 mps 726 mmHg 57%
    11:00 +3°C° 0 mm 1 mps 726 mmHg 53%
    12:00 +3°C° 0 mm 2 mps 725 mmHg 50%
    13:00 +4°C° 0 mm 2 mps 725 mmHg 46%
    14:00 +2°C° 0 mm 2 mps 724 mmHg 49%
    15:00 +1°C° 0 mm 2 mps 724 mmHg 52%
    16:00 -1°C° 0 mm 2 mps 723 mmHg 56%
    17:00 -1°C° 0 mm 2 mps 723 mmHg 59%
    18:00 -2°C° 0 mm 2 mps 722 mmHg 62%
    19:00 -2°C° 0 mm 2 mps 722 mmHg 66%
    20:00 -2°C° 0 mm 2 mps 722 mmHg 74%
    21:00 -2°C° 0 mm 2 mps 722 mmHg 82%
    22:00 -1°C° 0 mm 2 mps 722 mmHg 90%
    23:00 -1°C° 0.1 mm 2 mps 721 mmHg 90%

    19 November, Monday

    Time Temperature Precipitation Wind Pressure Humidity
    00:00 -1°C° 0.1 mm 2 mps 721 mmHg 91%
    01:00 -1°C° 0.1 mm 3 mps 721 mmHg 92%
    02:00 -1°C° 0.1 mm 3 mps 720 mmHg 92%
    03:00 -1°C° 0.1 mm 3 mps 720 mmHg 92%
    04:00 -1°C° 0.1 mm 3 mps 719 mmHg 92%
    05:00 -1°C° 0.1 mm 3 mps 719 mmHg 92%
    06:00 -1°C° 0.1 mm 3 mps 719 mmHg 92%
    07:00 -1°C° 0.1 mm 3 mps 718 mmHg 92%
    08:00 -1°C° 0.3 mm 3 mps 718 mmHg 89%
    09:00 -1°C° 0.3 mm 4 mps 718 mmHg 87%
    10:00 -1°C° 0.3 mm 4 mps 718 mmHg 85%
    11:00 -1°C° 0.3 mm 4 mps 718 mmHg 84%
    12:00 -1°C° 0.3 mm 5 mps 718 mmHg 83%
    13:00 -1°C° 0.3 mm 5 mps 718 mmHg 83%
    14:00 -2°C° 0.2 mm 5 mps 718 mmHg 84%
    15:00 -2°C° 0.2 mm 4 mps 718 mmHg 84%
    16:00 -2°C° 0.2 mm 4 mps 717 mmHg 85%
    17:00 -2°C° 0.2 mm 4 mps 717 mmHg 86%
    18:00 -2°C° 0.2 mm 4 mps 717 mmHg 88%
    19:00 -3°C° 0.2 mm 4 mps 717 mmHg 90%
    20:00 -3°C° 0.2 mm 4 mps 717 mmHg 91%
    21:00 -2°C° 0.2 mm 3 mps 717 mmHg 91%
    22:00 -2°C° 0.2 mm 3 mps 717 mmHg 92%
    23:00 -2°C° 0.2 mm 3 mps 717 mmHg 93%

    20 November, Tuesday

    Time Temperature Precipitation Wind Pressure Humidity
    00:00 -2°C° 0.2 mm 3 mps 717 mmHg 93%
    01:00 -2°C° 0.2 mm 3 mps 717 mmHg 94%
    02:00 -2°C° 0.1 mm 3 mps 716 mmHg 94%
    03:00 -2°C° 0.1 mm 3 mps 716 mmHg 93%
    04:00 -2°C° 0.1 mm 3 mps 716 mmHg 93%
    05:00 -2°C° 0 mm 3 mps 716 mmHg 93%
    06:00 -2°C° 0 mm 2 mps 715 mmHg 94%
    07:00 -3°C° 0 mm 2 mps 715 mmHg 94%
    08:00 -2°C° 0.1 mm 2 mps 715 mmHg 92%
    09:00 -2°C° 0.1 mm 3 mps 716 mmHg 90%
    10:00 -1°C° 0.1 mm 3 mps 716 mmHg 88%
    11:00 -1°C° 0.1 mm 3 mps 715 mmHg 86%
    12:00 -1°C° 0.1 mm 3 mps 715 mmHg 85%
    13:00 -1°C° 0.1 mm 3 mps 715 mmHg 83%
    14:00 -1°C° 0.1 mm 3 mps 715 mmHg 85%
    15:00 -2°C° 0.1 mm 3 mps 715 mmHg 86%
    16:00 -2°C° 0.1 mm 3 mps 714 mmHg 88%
    17:00 -2°C° 0.1 mm 3 mps 714 mmHg 89%
    18:00 -4°C° 0.1 mm 3 mps 714 mmHg 91%
    19:00 -4°C° 0.1 mm 3 mps 714 mmHg 92%
    20:00 -4°C° 0.1 mm 3 mps 714 mmHg 92%
    21:00 -4°C° 0.1 mm 4 mps 714 mmHg 92%
    22:00 -4°C° 0.1 mm 4 mps 714 mmHg 92%
    23:00 -4°C° 0.1 mm 4 mps 713 mmHg 91%

    21 November, Wednesday

    Time Temperature Precipitation Wind Pressure Humidity
    00:00 -4°C° 0.1 mm 4 mps 713 mmHg 90%
    01:00 -5°C° 0.1 mm 5 mps 713 mmHg 89%
    02:00 -5°C° 0.1 mm 5 mps 712 mmHg 89%
    03:00 -5°C° 0.1 mm 5 mps 712 mmHg 88%
    04:00 -5°C° 0.1 mm 6 mps 711 mmHg 88%
    05:00 -5°C° 0.2 mm 6 mps 711 mmHg 88%
    06:00 -5°C° 0.2 mm 6 mps 710 mmHg 88%
    07:00 -5°C° 0.2 mm 6 mps 710 mmHg 88%
    08:00 -6°C° 0.8 mm 7 mps 710 mmHg 89%
    09:00 -6°C° 0.8 mm 7 mps 710 mmHg 89%
    10:00 -5°C° 0.8 mm 8 mps 709 mmHg 89%
    11:00 -5°C° 0.9 mm 8 mps 709 mmHg 89%
    12:00 -5°C° 0.9 mm 8 mps 708 mmHg 89%
    13:00 -5°C° 0.9 mm 8 mps 708 mmHg 90%
    14:00 -5°C° 0.8 mm 8 mps 708 mmHg 90%
    15:00 -5°C° 0.8 mm 8 mps 707 mmHg 91%
    16:00 -4°C° 0.8 mm 7 mps 707 mmHg 91%
    17:00 -4°C° 1.1 mm 7 mps 707 mmHg 91%
    18:00 -4°C° 1.1 mm 7 mps 707 mmHg 92%
    19:00 -4°C° 1.1 mm 7 mps 707 mmHg 92%
    20:00 -4°C° 0.8 mm 7 mps 707 mmHg 93%
    21:00 -4°C° 0.8 mm 7 mps 707 mmHg 93%
    22:00 -4°C° 0.8 mm 7 mps 707 mmHg 93%
    23:00 -4°C° 0.7 mm 7 mps 707 mmHg 93%
    Show more